Location: Unspecified
(40.8819°N, 0.0000°E)
Time: 19:42:04
(UTC+00:00)

UNISAT 6 - Visible Passes

Search period start: 22 April 2024 00:00
Search period end: 02 May 2024 00:00
Orbit: 593 x 669 km, 97.7° (Epoch: 22 April)

Date Brightness Start Highest point End Pass type
(mag) Time Alt. Az. Time Alt. Az. Time Alt. Az.
22 Apr ? 03:39:10 10° SSE 03:43:30 56° ENE 03:47:44 10° N visible
23 Apr ? 03:59:50 10° SSE 04:04:15 85° W 04:08:35 10° NNW visible
24 Apr ? 02:46:30 10° E 02:49:04 15° ENE 02:51:36 10° NNE visible
24 Apr ? 04:20:46 10° S 04:25:02 49° W 04:29:14 10° NNW visible
25 Apr ? 03:06:05 10° ESE 03:09:37 25° ENE 03:13:06 10° NNE visible
26 Apr ? 03:26:09 10° SE 03:30:13 40° ENE 03:34:14 10° N visible
27 Apr ? 03:46:31 10° SSE 03:50:51 69° ENE 03:55:06 10° N visible
28 Apr ? 02:34:27 10° E 02:35:43 11° ENE 02:36:59 10° NE visible
28 Apr ? 04:07:11 10° S 04:11:30 70° WSW 04:15:46 10° NNW visible
29 Apr ? 02:53:13 10° ESE 02:56:08 18° ENE 02:59:02 10° NNE visible
29 Apr ? 04:28:08 10° SSW 04:32:12 40° W 04:36:14 10° NNW visible
30 Apr ? 03:12:54 10° SE 03:16:36 29° ENE 03:20:16 10° N visible
01 May ? 03:32:58 10° SSE 03:37:07 48° ENE 03:41:12 10° N visible
